EW7083 Weather Reports


Display with metric or nautical units.
time (UTC)temp
F
wind
direction
speed
MPH
gust
MPH
rain 1hr
in
rain 24hr
in
rain mn
in
humidity
%
barometer
mb
20260504041119 40 180 0.0 0.0 0.00 0.00 0.00 100 560.1
20260504040117 41 360 0.0 0.0 0.00 0.00 0.00 100 560.1
20260504035126 41 180 0.0 0.0 0.00 0.00 0.00 100 560.1
20260504034126 41 180 0.0 0.0 0.00 0.00 0.00 100 560.1
20260504034025 41 180 0.0 0.0 0.00 0.00 0.00 100 560.1
20260504032125 43 180 0.0 0.0 0.00 0.00 0.00 100 560.1
20260504031123 43 180 0.0 0.0 0.00 0.00 0.00 100 560.1
20260504030125 43 180 0.0 0.0 0.00 0.00 0.00 100 560.1
20260504025124 43 180 0.0 0.0 0.00 0.00 0.00 100 560.1
20260504024127 44 180 0.0 0.0 0.00 0.00 0.00 100 560.1
20260504023224 44 180 0.0 0.0 0.00 0.00 0.00 100 560.1
20260504023125 44 180 0.0 0.0 0.00 0.00 0.00 100 560.1
20260504020227 46 180 0.0 0.0 0.00 0.00 0.00 100 560.1
20260504013423 47 180 0.0 0.0 0.00 0.00 0.00 100 560.1
20260504012426 48 202 0.0 0.0 0.00 0.00 0.00 100 560.1
20260504011424 48 202 0.0 0.0 0.00 0.00 0.00 100 560.1
20260504010426 48 202 0.0 0.0 0.00 0.00 0.00 100 560.1
20260504005424 49 202 0.0 0.0 0.00 0.00 0.00 100 560.1
20260504005326 48 202 0.0 0.0 0.00 0.00 0.00 100 560.1
20260504004326 51 202 0.0 0.0 0.00 0.00 0.00 100 560.1
20260504003327 53 202 0.0 0.0 0.00 0.00 0.00 100 560.1
20260504002424 54 202 0.0 0.0 0.00 0.00 0.00 100 560.1
20260504000424 56 199 0.0 0.0 0.00 0.00 0.00 100 560.1
20260503235426 57 225 0.0 0.0 0.00 0.00 0.00 100 560.1
20260503234426 59 202 0.0 0.0 0.00 0.00 0.00 100 560.1
20260503232326 62 315 0.0 0.0 0.00 0.00 0.00 100 560.1
20260503231423 64 202 0.0 0.0 0.00 0.00 0.00 100 560.1
20260503230423 66 292 0.0 0.0 0.00 0.00 0.00 100 560.1
20260503225425 65 315 0.0 2.0 0.00 0.00 0.00 100 560.1
20260503224424 66 282 0.0 0.0 0.00 0.00 0.00 100 560.1
20260503223425 65 315 0.0 0.0 0.00 0.00 0.00 100 560.1
20260503221523 63 304 2.0 5.0 0.00 0.00 0.00 100 560.1
20260503220526 63 292 0.0 3.0 0.00 0.00 0.00 100 560.1
20260503215624 63 274 1.0 4.0 0.00 0.00 0.00 100 560.1
20260503214624 63 287 0.0 3.0 0.00 0.00 0.00 100 560.1
20260503213624 63 263 1.0 5.0 0.00 0.00 0.00 100 560.1
20260503212624 63 212 1.0 4.0 0.00 0.00 0.00 100 560.1
20260503211623 63 235 6.0 12.0 0.00 0.00 0.00 100 560.1
20260503210624 63 245 3.0 6.0 0.00 0.00 0.00 100 560.1
20260503205724 62 22 0.0 1.0 0.00 0.00 0.00 100 560.1
20260503204727 63 264 1.0 8.0 0.00 0.00 0.00 100 560.1
20260503202727 63 46 2.0 5.0 0.00 0.00 0.00 100 560.1
20260503201724 62 332 1.0 4.0 0.00 0.00 0.00 100 560.1
20260503200724 62 14 4.0 6.0 0.00 0.00 0.00 100 560.1
20260503193925 61 85 3.0 9.0 0.00 0.00 0.00 100 560.1
20260503192926 61 234 0.0 3.0 0.00 0.00 0.00 100 560.1
20260503191923 60 337 3.0 8.0 0.00 0.00 0.00 100 560.1
20260503185924 60 311 2.0 5.0 0.00 0.00 0.00 100 560.1
20260503184926 60 315 0.0 0.0 0.00 0.00 0.00 100 560.1
20260503182925 58 295 0.0 0.0 0.00 0.00 0.00 100 560.1
20260503181925 58 360 0.0 0.0 0.00 0.00 0.00 100 560.1
20260503180926 58 348 2.0 5.0 0.00 0.00 0.00 100 560.1
20260503180024 57 289 0.0 0.0 0.00 0.00 0.00 100 560.1
20260503175025 57 316 1.0 4.0 0.00 0.00 0.00 100 560.1
20260503174024 57 339 3.0 7.0 0.00 0.00 0.00 100 560.1
20260503173024 56 152 4.0 9.0 0.00 0.00 0.00 100 560.1
20260503172025 56 285 0.0 4.0 0.00 0.00 0.00 100 560.1
20260503170123 55 312 0.0 3.0 0.00 0.00 0.00 100 560.1
20260503150124 51 306 3.0 8.0 0.00 0.00 0.00 100 560.1
20260503130525 46 315 0.0 0.0 0.00 0.00 0.00 100 560.1
20260503110223 34 180 0.0 0.0 0.00 0.00 0.00 100 560.1
20260503090325 38 180 0.0 0.0 0.00 0.00 0.00 100 560.1
20260503072524 38 180 0.0 0.0 0.00 0.00 0.00 100 560.1
20260503071525 39 180 0.0 0.0 0.00 0.00 0.00 100 560.1
20260503054624 38 162 0.0 0.0 0.00 0.00 0.00 100 560.1
20260503053625 38 247 0.0 0.0 0.00 0.00 0.00 100 560.1
20260503052626 39 247 0.0 0.0 0.00 0.00 0.00 100 560.1
20260503051624 39 247 0.0 0.0 0.00 0.00 0.00 100 560.1
20260503050625 39 247 0.0 0.0 0.00 0.00 0.00 100 560.1
20260503045625 39 247 0.0 0.0 0.00 0.00 0.00 100 560.1
20260503044624 40 247 0.0 0.0 0.00 0.00 0.00 100 560.1
20260503043624 41 247 0.0 0.0 0.00 0.00 0.00 100 560.1